Regional Weather Roundup
Issued by NWS

Home | Current Version | Previous Version | Graphics & Text | Print | Product List | Glossary On
Versions: 1 2 3 4 5 6 7 8 9 10 11 12 13 14 15 16 17 18 19 20 21 22 23 24 25 26 27 28 29 30 31 32 33 34 35 36 37 38 39 40 41 42 43 44 45 46 47 48 49 50
000
ASUS45 KBOU 291407
RWRCO

WEATHER ROUNDUP FOR COLORADO
NATIONAL WEATHER SERVICE DENVER/BOULDER CO
800 AM MDT SUN MAR 29 2015

NOTE: "FAIR" INDICATES FEW OR NO CLOUDS BELOW 12000 FEET WITH NO
SIGNIFICANT WEATHER AND/OR OBSTRUCTIONS TO VISIBILITY.

COZ001>005-013-030-031-291500-
...NORTHWEST COLORADO...

CITY           SKY/WX    TMP DP  RH WIND       PRES   REMARKS
CRAIG          SUNNY     33  22  63 CALM      30.35R
HAYDEN         SUNNY     34  18  51 S3        30.34R
MEEKER         NOT AVBL
MOUNT WERNER   NOT AVBL
STEAMBOAT SPGS SUNNY     33  20  59 SE5       30.35R WCI  28
WALDEN         SUNNY     32  19  59 N7        30.37R WCI  26
$$

COZ006>008-011-291500-
...WEST CENTRAL VALLEYS...

CITY           SKY/WX    TMP DP  RH WIND       PRES   REMARKS
GRAND JUNCTION SUNNY     55  12  18 NE14G21   30.24R
MONTROSE       MOSUNNY   45  26  47 E7        30.29R
EAGLE          SUNNY     36  18  48 CALM      30.36R
RIFLE          MOSUNNY   40  19  43 NE3       30.32R
DELTA          MOSUNNY   51  25  36 NW3       30.26R
NUCLA          MOSUNNY   43  23  45 E3        30.31R
$$

COZ017>023-064>068-291500-
...SOUTHWEST COLORADO...

CITY           SKY/WX    TMP DP  RH WIND       PRES   REMARKS
DURANGO        MOSUNNY   36  23  59 CALM      30.28R
CORTEZ         SUNNY     39  24  55 E5        30.26R
PAGOSA SPRINGS MOSUNNY   39  26  58 NW3       30.33R
TELLURIDE      NOT AVBL
WOLF CREEK PAS   N/A     32  18  55 N5        30.51F WCI  27
$$

COZ009-010-012-014-032>034-037-058>063-291500-
...CENTRAL COLORADO...

CITY           SKY/WX    TMP DP  RH WIND       PRES   REMARKS
ASPEN          MOSUNNY   36  19  50 S8        30.34R
BUENA VISTA    MOSUNNY   43  15  31 NW15G24   30.31S
COPPER MTN     MOSUNNY   28   5  37 W10       30.46R WCI  19
BERTHOUD PASS  FAIR      21  14  73 W26       30.45R WCI   4
COTTONWOOD PAS MOSUNNY   43   3  19 W25G38    30.35R
GUNNISON       SUNNY     37  27  65 N7        30.37R
KREMMLING      SUNNY     34  18  51 CALM      30.39R
LEADVILLE      MOSUNNY   27  10  49 NE10      30.39R WCI  17
SALIDA         MOSUNNY   46  27  47 E3        30.37R
SUNLIGHT       SUNNY     34   5  29 CALM      30.47R
WILKERSON PASS SUNNY     32  -6  19 NW14G29   30.40R WCI  22
$$

COZ069>075-291500-
...SAN LUIS VALLEY/SANGRE DE CRISTO MOUNTAINS...

CITY           SKY/WX    TMP DP  RH WIND       PRES   REMARKS
ALAMOSA        MOSUNNY   43  26  51 W3        30.32R
LA VETA PASS   MOSUNNY   39  21  48 W9G16     30.41R
SAGUACHE       SUNNY     43  28  56 NE6       30.34R
$$

COZ035-036-038>040-291500-
...NORTHERN COLORADO FRONT RANGE...

CITY           SKY/WX    TMP DP  RH WIND       PRES   REMARKS
DENVER INTL AP MOSUNNY   42  23  46 E9        30.28R
DMNS CITY PARK   N/A     47  22  37 SE3       30.30R
AURORA         NOT AVBL
FRONT RANGE AP SUNNY     43  25  49 NE8       30.30R
ERIE MUNI ARPT SUNNY     44  25  46 S3        30.28R
BOULDER MUN AP SUNNY     45  27  49 SE5       30.27R
CENTENNIAL     MOSUNNY   42  24  49 CALM      30.29R
BROOMFIELD     SUNNY     43  27  52 S5        30.29R
FORT COLLINS   SUNNY     48  18  29 N18       30.26S
LONGMONT       SUNNY     44  29  55 SW3       30.29R
$$

COZ041-046-047-076>085-087-088-291500-
...PIKES PEAK/PALMER DIVIDE AND SOUTHERN FOOTHILLS...

CITY           SKY/WX    TMP DP  RH WIND       PRES   REMARKS
COLO. SPRINGS  MOSUNNY   44  21  40 N14       30.29R
A. F. ACADEMY  SUNNY     42  20  42 NW12      30.30R
ELLICOTT       SUNNY    N/A N/A N/A E5        30.27R
FALCON         SUNNY     40  21  46 N13       30.29R
FORT CARSON    SUNNY     47  19  33 N23G29    30.27R
LIMON          SUNNY     42  20  41 N9        30.27R
MONUMENT HILL  SUNNY     37  19  48 NE6       30.30R
TRINIDAD       PTSUNNY   52  28  39 N12       30.26R
$$

COZ042>045-048>051-090-091-291500-
...NORTHEAST COLORADO...

CITY           SKY/WX    TMP DP  RH WIND       PRES   REMARKS
GREELEY ARPT   SUNNY     46  19  34 N22G29    30.26R
AKRON          SUNNY     44  23  43 N29G39    30.24R
BURLINGTON     SUNNY     49  19  30 N24G31    30.18R
WRAY           SUNNY     50  21  32 NW18      30.21R
STERLING       SUNNY     46  28  49 N16G22    30.25R
HOLYOKE        NOT AVBL
FORT MORGAN    SUNNY    N/A N/A N/A N25       30.28R
$$

COZ086-089-092>099-291500-
...SOUTHEAST COLORADO...

CITY           SKY/WX    TMP DP  RH WIND       PRES   REMARKS
PUEBLO         SUNNY     50  25  37 NE5       30.26R
LA JUNTA       SUNNY     53  23  31 N10       30.22R
LAMAR          MOSUNNY   54  31  41 N6        30.18R
SPRINGFIELD      N/A     53  35  50 N20       30.18R
$$


USA.gov is the U.S. government's official web portal to all federal, state and local government web resources and services.